Location: Newark
(43.0967°N, 75.2319°W)
Time: 14:05:34
(UTC+00:00)

ISS - Visible Passes

Search period start: 16 July 2019 00:00
Search period end: 26 July 2019 00:00
Orbit: 409 x 418 km, 51.6° (Epoch: 16 July)

Date Brightness Start Highest point End Pass type
(mag) Time Alt. Az. Time Alt. Az. Time Alt. Az.
16 Jul -2.4 02:30:39 10° SW 02:35:23 25° E 02:37:03 10° ENE visible
16 Jul -2.0 04:07:34 10° W 04:10:37 32° NNW 04:13:40 10° NE visible
16 Jul -0.9 05:45:36 10° NW 05:48:01 18° N 05:50:26 10° NE visible
16 Jul -1.6 07:22:31 10° NW 07:25:27 28° NNE 07:28:23 10° E visible
16 Jul -3.8 08:59:03 10° WNW 09:02:20 58° SW 09:05:34 10° SE visible
17 Jul -2.8 01:41:50 10° SSW 01:44:40 26° SE 01:47:30 10° ENE visible
17 Jul -2.7 03:17:59 10° WSW 03:21:13 45° NNW 03:24:26 10° NE visible
17 Jul -1.0 04:55:59 10° NW 04:58:29 19° N 05:01:00 10° NE visible
17 Jul -1.2 06:33:16 10° NW 06:36:00 23° NNE 06:38:42 10° ENE visible
17 Jul -3.7 08:09:43 10° NW 08:13:03 82° NNE 08:16:21 10° ESE visible
18 Jul -3.6 02:28:32 10° WSW 02:31:51 72° NNW 02:35:12 10° NE visible
18 Jul -1.2 04:06:18 10° WNW 04:08:58 22° NNW 04:11:38 10° NE visible
18 Jul -1.0 05:43:56 10° NW 05:46:29 20° N 05:49:01 10° ENE visible
18 Jul -2.9 07:20:28 10° NW 07:23:43 50° NNE 07:26:56 10° ESE visible
18 Jul -2.6 08:57:32 10° W 09:00:11 22° SW 09:02:49 10° S visible
19 Jul -3.9 01:39:14 10° SW 01:42:33 68° SE 01:45:53 10° ENE visible
19 Jul -1.5 03:16:34 10° WNW 03:19:28 26° NNW 03:22:21 10° NE visible
19 Jul -0.9 04:54:30 10° NW 04:56:56 18° N 04:59:22 10° NE visible
19 Jul -2.1 06:31:12 10° NW 06:34:18 35° NNE 06:37:23 10° E visible
19 Jul -3.4 08:07:53 10° WNW 08:11:00 38° SW 08:14:06 10° SSE visible
20 Jul -2.0 02:26:54 10° W 02:30:00 35° NNW 02:33:06 10° NE visible
20 Jul -0.9 04:04:56 10° NW 04:07:21 18° N 04:09:48 10° NE visible
20 Jul -1.6 05:41:56 10° NW 05:44:49 26° NNE 05:45:57 22° NE visible
20 Jul -1.0 07:18:26 10° WNW 07:26:30 - SE 07:18:29 10° WNW visible
21 Jul -2.8 01:37:18 10° WSW 01:40:34 51° NNW 01:43:50 10° NE visible
21 Jul -1.0 03:15:14 10° WNW 03:17:48 20° N 03:20:20 10° NE visible
21 Jul -1.3 04:52:37 10° NW 04:55:18 22° NNE 04:56:07 20° NE visible
22 Jul -1.2 02:25:29 10° WNW 02:28:14 23° NNW 02:30:58 10° NE visible
22 Jul -1.1 04:03:14 10° NW 04:05:44 19° N 04:07:35 13° NE visible
22 Jul -1.0 05:39:47 10° NW 05:40:22 14° NW 05:40:22 14° NW visible
23 Jul -1.6 01:35:44 10° W 01:38:42 28° NNW 01:41:39 10° NE visible
23 Jul -1.0 03:13:42 10° NW 03:16:08 18° N 03:18:34 10° NE visible
23 Jul -1.4 04:50:29 10° NW 04:52:11 23° NNW 04:52:11 23° NNW visible
24 Jul -1.0 02:24:03 10° NW 02:26:31 19° N 02:28:59 10° NE visible
24 Jul -1.6 04:01:11 10° NW 04:04:00 25° NNE 04:04:06 25° NNE visible
25 Jul -1.1 01:34:18 10° WNW 01:36:55 21° N 01:39:31 10° NE visible
25 Jul -1.3 03:11:47 10° NW 03:14:25 21° N 03:16:06 15° NE visible
25 Jul -0.9 04:48:16 10° NW 04:48:54 15° NW 04:48:54 15° NW visible
